• Join FlightAware (Why Join?)
  • Login
  • US Flag 
06:42AM EDT


 

Airport Tracker/Info


-or-


 

Live Flight TrackerFlight Track Log ✈ SWA3121 ✈ 30-Apr-2013 ✈ KBNA - KMCO

Flight Track Log - Related Links

Times and Time Zones

All times are in EDT time to prevent confusion due to time zone crossing. See the SWA3121 flight status page for this flight to view local times or setup timezone preferences in your user account.

Time Position Orientation Groundspeed Altitude Reporting Facility
EDT Latitude Longitude Course Direction KTS MPH feet Rate Location/Type
05:33PM 36.0333 -86.6833 183° South 212 244 4,400  Level Nashville TRACON
05:34PM 35.9833 -86.6500 152° Southeast 251 289 5,000 420 Climbing Nashville TRACON
05:34PM 35.9508 -86.6442 172° South 282 325 5,000 1,500 Level Memphis Center
05:35PM 35.8808 -86.6114 159° South 296 341 7,300 2,940 Climbing Memphis Center
05:36PM 35.8050 -86.5792 161° South 284 327 10,900 3,240 Climbing Memphis Center
05:37PM 35.7225 -86.5419 160° South 304 350 13,800 3,240 Climbing Memphis Center
05:38PM 35.6314 -86.5003 160° South 342 394 17,400 3,240 Climbing Memphis Center
05:40PM 35.3931 -86.3978 161° South 392 451 24,900 3,000 Climbing Atlanta Center
05:41PM 35.2878 -86.3439 157° South 402 463 27,600 2,040 Climbing Atlanta Center
05:42PM 35.1806 -86.2825 155° Southeast 419 482 29,000 660 Climbing Atlanta Center
05:43PM 35.0856 -86.2192 151° Southeast 414 476 29,000  Level Atlanta Center
05:44PM 35.0244 -86.1261 129° Southeast 394 453 29,000  Level Atlanta Center
05:45PM 34.9619 -86.0056 122° Southeast 394 453 29,000  Level Atlanta Center
05:46PM 34.8889 -85.8694 123° Southeast 419 482 29,000  Level Atlanta Center
05:47PM 34.8217 -85.7492 124° Southeast 435 501 29,000  Level Atlanta Center
05:48PM 34.7567 -85.6292 123° Southeast 435 501 29,000  Level Atlanta Center
05:49PM 34.6892 -85.5117 125° Southeast 435 501 29,000  Level Atlanta Center
05:50PM 34.6217 -85.3917 124° Southeast 430 495 29,000  Level Atlanta Center
05:51PM 34.5561 -85.2722 124° Southeast 430 495 29,000  Level Atlanta Center
05:52PM 34.5008 -85.1656 122° Southeast 430 495 29,000  Level Atlanta Center
05:53PM 34.4331 -85.0461 125° Southeast 424 488 29,000  Level Atlanta Center
05:54PM 34.3631 -84.9269 125° Southeast 424 488 29,000  Level Atlanta Center
05:55PM 34.2908 -84.7956 124° Southeast 430 495 29,000  Level Atlanta Center
05:56PM 34.2206 -84.6744 125° Southeast 430 495 29,000  Level Atlanta Center
05:57PM 34.1542 -84.5533 123° Southeast 435 501 29,000  Level Atlanta Center
05:58PM 34.0858 -84.4450 127° Southeast 440 506 29,000  Level Atlanta Center
05:59PM 34.0194 -84.3269 124° Southeast 440 506 29,000 -360 Level Atlanta Center
06:00PM 33.9464 -84.2042 126° Southeast 435 501 28,300 -1,020 Descending Atlanta Center
06:01PM 33.8797 -84.0789 123° Southeast 445 512 27,000 -660 Descending Atlanta Center
06:02PM 33.8131 -83.9614 124° Southeast 440 506 27,000  Level Atlanta Center
06:03PM 33.7439 -83.8489 126° Southeast 429 494 27,000  Level Atlanta Center
06:04PM 33.6792 -83.7317 124° Southeast 429 494 27,000  Level Atlanta Center
06:05PM 33.6036 -83.6072 126° Southeast 429 494 27,000  Level Atlanta Center
06:06PM 33.5364 -83.4931 125° Southeast 423 487 27,000  Level Atlanta Center
06:07PM 33.4689 -83.3789 125° Southeast 428 493 27,000  Level Atlanta Center
06:08PM 33.4014 -83.2625 125° Southeast 423 487 27,000  Level Atlanta Center
06:09PM 33.3339 -83.1486 125° Southeast 423 487 27,000  Level Atlanta Center
06:10PM 33.2619 -83.0328 127° Southeast 423 487 27,000  Level Atlanta Center
06:11PM 33.1922 -82.9192 126° Southeast 428 493 27,000  Level Atlanta Center
06:12PM 33.1242 -82.8036 125° Southeast 433 498 27,000  Level Atlanta Center
06:13PM 33.0564 -82.6881 125° Southeast 433 498 27,000  Level Atlanta Center
06:14PM 32.9861 -82.5728 126° Southeast 433 498 27,000  Level Atlanta Center
06:15PM 32.9158 -82.4600 127° Southeast 433 498 27,000  Level Atlanta Center
06:16PM 32.8453 -82.3428 126° Southeast 433 498 27,000  Level Atlanta Center
06:19PM 32.6900 -82.0656 124° Southeast 428 493 27,000  Level Jacksonville Center
06:20PM 32.6475 -81.9500 114° Southeast 420 483 27,000  Level Jacksonville Center
06:21PM 32.5939 -81.8028 113° Southeast 436 502 27,100 480 Climbing Jacksonville Center
06:22PM 32.5406 -81.6653 115° Southeast 441 507 28,000 420 Climbing Jacksonville Center
06:23PM 32.4956 -81.5428 114° Southeast 449 517 28,000  Level Jacksonville Center
06:24PM 32.4044 -81.4211 132° Southeast 449 517 28,000  Level Jacksonville Center
06:25PM 32.3011 -81.3319 144° Southeast 451 519 28,000  Level Jacksonville Center
06:26PM 32.1956 -81.2428 144° Southeast 466 536 28,000  Level Jacksonville Center
06:27PM 32.0800 -81.1958 161° South 443 510 28,000  Level Jacksonville Center
06:28PM 31.9547 -81.1933 179° South 449 517 28,000  Level Jacksonville Center
06:29PM 31.8314 -81.1906 179° South 454 522 28,000  Level Jacksonville Center
06:30PM 31.7186 -81.1878 179° South 459 528 28,000  Level Jacksonville Center
06:31PM 31.5808 -81.1831 178° South 452 520 28,000  Level Jacksonville Center
06:32PM 31.4597 -81.1781 178° South 451 519 28,000  Level Jacksonville Center
06:33PM 31.3447 -81.1775 180° South 451 519 28,000  Level Jacksonville Center
06:34PM 31.2175 -81.1750 179° South 457 526 28,000  Level Jacksonville Center
06:35PM 31.0942 -81.1675 177° South 457 526 28,000  Level Jacksonville Center
06:36PM 30.9708 -81.1650 179° South 457 526 28,000  Level Jacksonville Center
06:37PM 30.8519 -81.1625 179° South 446 513 28,000 -180 Level Jacksonville Center
06:38PM 30.7350 -81.1597 179° South 429 494 27,700 -660 Descending Jacksonville Center
06:39PM 30.6181 -81.1544 178° South 424 488 26,700 -1,080 Descending Jacksonville Center
06:41PM 30.3881 -81.1467 178° South 401 461 24,600 -900 Descending Jacksonville Center
06:42PM 30.2775 -81.1439 179° South 401 461 24,000 -660 Descending Jacksonville Center
06:43PM 30.1689 -81.1411 179° South 401 461 23,300 -900 Descending Jacksonville Center
06:44PM 30.0603 -81.1383 179° South 401 461 22,300 -960 Descending Jacksonville Center
06:45PM 29.9517 -81.1331 178° South 396 456 21,400 -960 Descending Jacksonville Center
06:46PM 29.8431 -81.1325 180° South 396 456 20,400 -1,020 Descending Jacksonville Center
06:47PM 29.7344 -81.1297 179° South 396 456 19,400 -1,020 Descending Jacksonville Center
06:48PM 29.6300 -81.1244 177° South 396 456 18,400 -960 Descending Jacksonville Center
06:49PM 29.5236 -81.1217 179° South 384 442 17,500 -900 Descending Jacksonville Center
06:50PM 29.4317 -81.1186 178° South 379 436 16,600 -960 Descending Jacksonville Center
06:51PM 29.3314 -81.1156 178° South 373 429 15,600 -1,020 Descending Jacksonville Center
06:52PM 29.2353 -81.1078 176° South 363 418 14,600 -1,200 Descending Jacksonville Center
06:53PM 29.1392 -81.1000 176° South 358 412 13,300 -1,260 Descending Jacksonville Center
06:54PM 29.0453 -81.0947 177° South 346 398 12,100 -780 Descending Jacksonville Center
06:55PM 28.9614 -81.0794 171° South 326 375 11,800 -960 Descending Jacksonville Center
06:56PM 28.8797 -81.0503 163° South 313 360 10,200 -1,920 Descending Jacksonville Center
06:56PM 28.8500 -81.0333 153° Southeast 301 346 9,400 -900 Descending Orlando TRACON
06:57PM 28.7833 -81.0000 156° South 267 307 9,100 -600 Descending Orlando TRACON
06:58PM 28.7333 -81.0167 196° South 217 250 8,300 -1,080 Descending Orlando TRACON
06:59PM 28.7333 -81.0833 270° West 221 254 7,100 -1,440 Descending Orlando TRACON
07:00PM 28.7167 -81.1667 257° West 222 255 5,400 -1,560 Descending Orlando TRACON
07:01PM 28.7000 -81.2333 254° West 220 253 3,900 -1,200 Descending Orlando TRACON
07:02PM 28.6500 -81.2667 210° Southwest 223 257 3,000 -540 Descending Orlando TRACON
07:03PM 28.5833 -81.3000 204° Southwest 206 237 2,900 -540 Descending Orlando TRACON
07:04PM 28.5333 -81.3000 180° South 190 219 2,000 -900 Descending Orlando TRACON
07:05PM 28.4833 -81.3000 180° South 149 171 1,100 -840 Descending Orlando TRACON
07:06PM 28.4667 -81.3000 180° South 122 140 500 -720 Descending Orlando TRACON
07:08PM 28.4294 -81.3090 180° South  Level Estimated
07:15PM 28.4294 -81.3090 180° South  Level Estimated
07:16PM 28.4294 -81.3090 180° South  Level Estimated
07:17PM 28.4294 -81.3090 180° South  Level Estimated
07:18PM 28.4294 -81.3090 180° South  Level Estimated